Theta_e
311 311 313 312 312 311 311 311 310 311 311 311 311 310 311 311 311 311 311 311 312 312 312 312 312 312 312 312 312 313 312 307 305 301 299 301 308 315 321 320 323 319 321 314 311 311 307 307 307 309 310 309 306 305 308 309 305 307 301 298 294 296 294 298 298 299 298 298 301 301 300 300 316 325 329 333 330 330 330 330 332 333 333 335 335 338 339 340
310 311 311 312 311 311 311 311 311 311 311 310 311 311 311 311 311 311 311 311 312 312 313 312 312 312 312 312 312 313 310 306 301 300 301 308 319 320 323 324 326 323 319 312 309 308 306 304 306 308 306 303 307 304 308 306 307 302 298 298 294 296 298 301 300 300 298 300 301 301 301 298 309 326 324 324 325 327 326 328 328 327 330 333 335 336 337 338
310 311 311 311 311 310 310 310 310 311 311 311 311 311 311 310 311 311 311 311 311 312 312 312 312 311 312 312 311 312 307 300 298 295 301 317 316 319 323 324 329 325 312 309 308 309 308 307 307 306 305 304 305 303 306 305 306 302 300 296 297 300 300 299 300 300 300 300 301 301 300 298 307 309 317 322 324 325 324 326 324 328 328 330 332 335 336 337
311 311 311 311 311 310 309 310 310 310 310 310 311 310 310 311 311 311 312 311 311 311 311 311 311 311 311 311 312 310 304 300 292 298 303 321 325 321 322 323 329 323 310 309 306 305 306 308 308 306 303 303 303 303 302 304 304 302 299 297 299 300 299 302 300 302 302 299 300 300 299 300 301 303 321 325 322 323 326 328 324 328 329 329 332 333 335 335
311 311 310 310 311 311 310 310 310 310 310 310 310 310 310 310 310 310 311 311 311 311 311 311 311 311 311 311 310 308 300 292 294 296 303 324 334 328 323 326 329 314 311 307 306 306 309 308 306 304 302 300 302 302 302 303 305 302 301 302 301 297 298 302 302 300 299 299 299 298 299 299 303 316 321 325 314 313 323 327 329 330 333 330 331 332 334 334
311 310 310 310 310 309 309 310 310 310 310 310 310 310 310 310 310 310 310 311 310 310 311 311 310 310 311 311 309 305 293 287 296 301 321 332 330 331 325 327 327 309 308 307 306 305 306 306 304 300 299 301 301 299 302 304 302 298 301 300 303 302 301 303 301 298 298 300 299 299 300 301 303 310 324 318 310 312 318 319 330 333 334 333 334 333 333 333
310 310 310 309 309 309 309 308 310 310 309 310 310 309 310 311 311 310 310 311 310 310 310 310 310 310 310 310 306 301 291 293 299 302 321 333 333 329 326 329 322 307 308 305 305 303 304 303 303 300 299 299 301 302 302 302 299 299 298 299 300 301 301 303 302 300 299 298 299 300 300 300 301 304 313 318 312 328 333 333 335 334 334 334 332 333 332 333
310 309 309 309 309 309 309 309 308 309 310 310 310 310 309 310 311 310 310 310 310 309 310 310 310 310 310 305 298 295 294 293 300 300 330 332 330 327 327 318 309 307 307 305 304 303 304 301 299 301 299 296 299 302 302 300 299 299 298 301 301 300 301 301 300 299 297 298 300 298 298 300 301 300 314 316 325 331 333 335 335 334 333 332 331 331 332 333
309 309 309 308 309 309 309 310 309 308 308 309 309 309 310 309 309 310 309 310 309 309 310 310 309 309 309 303 294 290 290 299 301 310 322 323 325 323 317 310 307 306 306 306 306 304 303 301 300 301 295 297 301 301 299 300 297 300 301 299 299 301 301 302 300 300 298 299 298 298 298 299 299 303 308 314 328 331 334 334 333 332 331 331 331 332 332 332
309 308 308 308 308 309 309 309 309 309 309 308 309 309 310 309 309 308 309 309 309 309 309 309 309 309 306 302 292 287 296 299 308 320 321 321 319 317 313 311 307 306 304 304 304 304 302 302 300 302 303 301 302 301 301 301 299 301 301 301 301 303 301 300 298 300 297 297 299 298 299 298 298 299 301 313 330 332 332 331 332 331 330 331 331 332 332 333
309 308 308 308 308 308 308 307 308 308 309 309 309 308 309 309 309 308 308 308 308 309 309 309 310 308 302 300 291 288 298 314 317 320 320 317 314 312 310 308 307 306 305 302 303 306 304 303 305 304 304 300 302 299 300 301 302 299 301 299 300 300 297 299 297 298 298 299 298 299 298 298 298 298 300 319 331 332 330 329 330 330 330 330 332 332 333 333
308 308 308 308 307 307 307 308 310 309 308 309 308 307 308 308 308 308 308 309 308 308 308 309 309 306 304 300 294 292 299 313 310 314 318 316 312 311 309 308 308 309 305 301 303 304 306 305 306 304 296 304 298 299 300 303 301 299 299 297 298 296 298 299 299 298 297 299 298 300 299 297 297 298 303 325 331 331 329 328 329 329 330 330 332 332 332 332
308 308 307 307 307 307 307 307 309 309 308 308 308 307 307 308 308 307 307 308 308 308 308 308 307 306 301 293 295 302 303 306 304 302 302 313 314 313 311 309 308 307 308 306 302 304 303 308 308 303 305 303 299 296 299 302 298 297 297 297 297 297 297 299 296 296 296 298 297 300 293 297 298 299 306 330 330 329 328 328 329 330 330 330 331 331 332 333
308 307 307 307 307 308 307 307 307 308 308 307 307 307 307 307 307 307 307 307 308 308 307 308 306 305 300 292 298 301 302 304 303 300 300 306 308 310 310 311 309 308 306 305 304 306 302 306 310 308 304 303 299 304 298 297 296 296 295 296 295 294 294 297 296 296 297 297 297 300 294 297 298 300 303 330 330 329 327 328 329 329 330 330 330 331 331 332
307 307 307 307 307 308 308 308 307 307 307 306 306 306 306 306 307 307 307 307 307 307 308 310 309 302 294 296 303 305 313 307 301 300 303 306 307 308 310 308 309 307 306 306 305 304 304 307 306 305 303 303 304 302 297 296 294 295 293 291 292 293 294 297 298 296 297 297 297 299 295 297 299 300 304 329 330 329 327 329 329 329 329 330 330 331 331 332
307 306 307 307 307 308 308 308 308 307 307 307 306 306 306 306 306 307 307 307 307 307 308 303 302 301 294 289 295 309 308 302 302 305 304 308 309 304 311 308 307 307 307 306 306 306 305 305 302 303 302 301 300 298 294 294 293 293 294 292 291 292 294 294 296 296 297 297 298 298 295 296 297 299 302 326 329 327 325 327 329 329 329 330 330 331 332 333
307 307 307 307 307 307 307 307 307 307 307 306 306 306 306 306 307 307 306 307 307 308 307 298 301 303 291 299 305 298 297 303 306 304 303 307 309 308 309 308 306 305 305 304 305 305 303 300 301 300 300 299 297 297 292 291 290 291 293 292 292 292 292 292 296 296 296 297 296 297 296 297 298 299 304 323 328 327 325 326 328 328 329 330 330 331 331 332
307 307 307 307 307 307 306 305 306 307 306 306 305 304 303 306 308 307 306 306 307 307 306 308 301 299 294 301 293 295 299 302 303 305 303 306 309 310 309 303 303 306 303 301 302 300 301 298 299 297 298 297 294 295 291 287 290 290 291 291 290 290 292 292 292 295 297 296 297 296 296 297 298 299 302 322 327 327 326 326 327 327 328 328 329 330 330 331
307 307 307 307 307 306 306 306 306 306 306 306 305 306 306 308 307 306 302 303 297 289 287 292 295 283 287 292 297 300 301 303 304 306 303 304 307 307 304 306 306 302 297 297 297 299 298 298 299 295 293 294 295 295 294 293 293 292 293 293 292 291 291 292 295 296 297 297 295 296 295 297 298 299 302 318 326 326 325 327 326 327 328 327 328 329 330 331
307 307 307 307 306 306 305 306 305 305 305 303 302 301 299 299 299 297 300 300 295 292 289 292 298 296 294 294 297 302 305 303 301 302 305 308 307 304 304 305 300 300 297 294 295 297 299 293 290 291 295 296 295 295 297 295 295 293 292 292 292 292 293 293 293 297 296 296 297 297 297 297 298 299 301 311 323 325 324 324 325 326 326 326 327 327 329 329
306 306 307 306 306 306 306 306 306 305 305 303 301 295 288 295 290 287 295 296 299 299 297 296 298 296 294 298 299 299 295 297 302 300 304 312 306 303 299 301 298 295 295 296 295 300 298 293 292 295 295 295 295 296 296 293 294 293 292 292 290 291 292 295 295 296 298 297 295 294 295 296 296 300 306 309 320 320 322 323 324 325 326 326 326 327 328 328
306 306 306 306 306 306 305 305 305 305 305 303 298 292 294 294 297 299 295 290 296 299 299 298 298 297 301 300 301 300 299 295 297 300 302 307 303 299 299 299 295 294 295 295 296 293 292 291 294 296 296 297 296 295 297 296 293 293 293 292 292 292 293 294 293 296 296 295 294 293 295 296 299 301 304 306 316 314 315 322 324 325 326 325 325 326 326 328
306 306 306 306 305 305 304 304 305 304 302 298 295 294 293 299 301 303 299 294 291 298 297 297 295 294 295 299 299 301 293 292 292 298 302 305 301 300 299 296 295 295 294 295 291 291 289 292 296 296 295 296 294 294 295 295 297 294 292 292 291 292 291 291 295 295 296 294 295 296 297 299 302 304 306 308 305 306 314 316 320 323 325 325 324 325 326 327
305 305 306 306 306 305 305 304 305 302 299 298 296 295 300 301 301 301 295 291 290 293 295 298 298 296 296 295 301 299 295 295 295 295 304 304 298 301 300 298 295 294 292 293 293 291 291 295 297 294 295 295 293 293 294 294 291 292 293 293 292 290 292 294 293 295 296 295 297 299 298 298 301 302 305 308 311 313 314 316 317 318 318 323 324 326 327 327
305 305 305 305 305 305 304 303 299 298 300 298 296 301 302 303 303 301 295 292 291 291 299 296 299 298 299 306 303 297 297 297 298 301 304 304 299 299 298 300 298 293 294 294 294 293 294 296 295 294 293 294 293 291 293 294 291 292 294 294 294 293 293 291 293 294 294 293 294 295 290 292 299 302 303 306 309 311 313 314 314 316 317 316 322 325 326 326
305 305 305 305 305 304 304 297 297 299 297 294 298 302 303 303 303 302 294 288 284 291 295 290 300 295 305 297 300 299 299 293 300 302 303 305 307 302 299 297 299 293 294 294 294 296 295 295 296 293 292 292 293 292 293 295 292 291 292 294 294 294 294 293 292 293 291 289 293 293 290 288 297 300 303 305 306 308 312 313 313 315 315 315 319 322 324 325
305 305 305 305 305 304 297 292 300 298 292 294 301 303 302 302 303 300 290 284 280 291 289 294 295 295 303 299 299 300 285 290 302 303 302 306 302 304 297 295 297 297 297 299 294 292 295 293 294 294 293 292 291 291 292 293 292 290 294 294 294 293 293 293 293 293 293 295 294 293 295 291 291 297 303 305 304 307 309 311 312 313 314 316 319 322 324 325
304 305 305 305 304 302 297 299 297 293 294 299 302 301 302 301 302 300 290 275 276 294 289 292 295 303 300 299 302 294 295 300 294 298 303 305 305 300 300 295 295 295 296 296 287 296 297 292 294 292 293 292 292 294 294 294 293 293 294 294 293 294 294 294 293 293 293 293 290 293 293 293 292 299 304 305 303 305 307 308 310 312 314 315 317 319 321 325
304 304 304 304 304 303 303 299 296 293 298 301 301 301 301 302 300 293 286 274 290 290 304 292 304 298 298 300 297 297 296 299 294 299 302 304 304 301 296 297 298 297 297 297 292 293 295 296 295 295 293 291 293 294 294 294 292 293 294 295 295 294 294 294 293 292 291 290 287 291 293 290 291 298 301 303 303 303 305 308 310 311 313 314 315 316 318 319
303 303 304 304 303 301 300 301 297 300 301 301 301 301 301 300 295 284 278 273 293 286 293 293 294 291 296 293 293 295 294 294 296 298 300 299 300 300 297 301 298 296 295 297 296 295 295 302 300 296 294 296 296 295 294 295 294 295 295 294 293 293 294 294 294 293 292 286 290 289 289 292 288 296 298 301 301 304 307 309 311 312 313 315 315 315 315 315
304 304 303 304 298 299 298 294 297 300 301 302 301 300 299 296 287 280 273 283 294 291 293 291 289 297 293 291 289 294 294 293 295 297 294 298 296 298 298 296 299 296 295 295 294 294 295 295 295 297 299 296 298 292 294 295 295 296 294 293 293 292 294 293 293 293 285 284 289 289 289 290 287 293 301 306 309 309 309 308 309 310 312 313 314 314 315 315
303 304 304 302 301 302 294 294 300 302 301 301 299 296 295 283 285 278 278 297 283 290 290 288 291 293 293 294 292 291 291 292 295 295 293 294 293 293 294 291 294 288 288 290 289 293 291 293 294 294 301 298 294 294 292 294 294 295 294 293 288 286 287 284 288 283 285 285 289 290 289 291 294 298 303 307 308 310 311 311 311 311 312 312 313 313 314 315
304 304 304 303 302 298 299 301 302 302 302 300 296 295 289 281 274 282 283 288 284 293 291 297 292 292 292 291 290 292 294 290 294 294 295 294 293 293 293 294 295 294 286 290 290 289 290 292 292 294 296 300 297 291 289 289 292 292 291 291 287 283 282 278 282 284 286 288 289 291 292 292 298 300 306 306 309 311 311 312 313 312 312 312 313 314 314 315
303 304 300 301 300 300 301 303 302 301 299 297 294 292 287 278 277 291 284 286 287 297 295 292 294 293 292 288 290 292 288 291 293 293 294 291 292 290 291 293 295 292 294 290 287 288 283 284 290 292 291 298 297 296 293 293 292 292 295 293 290 289 284 278 283 280 283 286 288 293 289 289 291 296 308 308 310 312 312 312 313 313 313 314 315 315 315 316
303 303 301 300 300 300 302 302 302 302 298 294 291 288 279 278 284 284 286 290 291 293 291 295 291 290 289 290 291 293 293 288 293 292 291 290 289 291 290 291 293 294 292 287 288 287 287 287 293 296 295 297 295 297 297 294 292 293 293 294 291 289 295 286 286 288 287 286 285 290 288 295 297 305 308 310 311 311 312 311 312 312 313 313 313 313 313 313
301 299 300 297 297 300 301 302 302 300 295 291 288 282 280 284 281 290 288 295 291 288 290 292 292 288 288 288 290 291 293 291 291 292 290 291 291 290 292 293 292 294 291 289 290 285 286 286 292 293 292 296 297 296 294 297 287 291 291 289 292 297 293 283 283 285 284 287 283 288 292 298 303 305 307 307 307 308 310 310 310 310 311 311 310 311 311 311
297 299 295 298 298 301 302 302 301 298 294 291 286 281 286 287 290 288 292 290 290 293 291 285 287 286 285 285 287 289 290 293 290 291 287 291 288 291 290 292 295 293 295 294 288 293 287 288 292 291 289 295 296 298 297 296 298 293 288 292 293 295 296 292 284 283 284 283 283 290 289 292 294 292 305 304 304 306 308 308 309 309 310 308 309 309 309 309
296 296 297 297 301 302 302 302 300 296 295 290 284 287 290 286 293 292 294 292 291 293 290 286 288 289 286 286 285 289 291 289 288 290 288 290 287 295 291 292 294 294 295 295 293 292 293 287 289 291 293 293 295 297 294 296 297 295 293 297 291 286 286 288 287 279 280 280 283 288 291 293 295 295 300 301 302 304 306 307 307 307 307 307 308 308 308 309
296 295 291 300 302 303 302 302 298 295 294 287 285 285 290 290 294 292 294 293 291 290 289 289 287 289 289 287 288 289 290 287 289 288 286 288 286 293 292 293 292 294 296 295 294 291 294 288 287 292 291 293 295 295 287 291 295 295 297 293 293 296 292 287 288 290 289 280 283 284 289 287 298 299 302 303 304 305 305 306 306 306 306 306 306 307 306 306
293 291 292 300 302 303 302 300 296 295 291 284 287 287 292 288 291 294 294 292 289 292 291 289 290 288 289 289 289 287 289 289 288 287 289 290 290 294 295 300 293 293 294 296 294 294 288 293 285 290 291 292 289 293 291 291 289 291 293 291 293 294 293 294 291 288 287 283 285 284 282 289 298 304 304 305 306 307 306 305 305 305 305 305 305 305 305 305
297 292 294 300 301 302 300 297 291 288 288 291 292 289 290 288 290 292 293 293 291 293 288 289 290 287 288 288 287 291 288 288 288 288 291 290 292 287 295 298 296 293 293 293 294 294 290 290 286 289 289 290 292 295 294 293 294 293 293 291 293 290 288 286 283 288 288 288 282 284 283 293 298 303 307 307 308 308 308 306 304 304 303 303 303 303 303 304
293 289 292 301 302 300 296 288 289 293 290 287 286 289 287 294 291 290 291 292 291 290 295 291 290 289 289 288 290 289 290 289 293 293 293 289 294 295 298 300 299 295 294 291 294 297 298 293 293 288 291 293 295 297 297 295 296 294 294 292 294 297 295 290 283 285 287 287 291 291 287 289 302 307 310 309 309 309 309 307 304 303 302 302 301 301 301 302
292 291 300 301 301 299 295 289 293 289 289 291 294 291 293 290 289 290 288 290 288 291 291 289 289 288 289 289 289 292 294 292 293 291 295 296 297 300 300 300 300 294 297 295 292 295 306 293 289 289 292 294 295 295 298 298 297 294 293 293 293 294 295 294 292 292 288 287 288 286 285 289 302 309 310 310 310 309 308 307 303 302 301 301 300 300 300 300
294 292 293 300 302 299 291 283 283 287 289 291 291 290 292 291 290 288 288 289 288 289 289 289 291 291 291 292 293 293 296 289 294 294 295 296 297 300 298 301 297 295 296 295 294 300 289 289 291 287 287 290 293 295 296 298 300 297 296 296 292 292 292 294 293 294 288 289 290 287 282 290 302 308 309 308 306 304 304 304 304 300 300 300 299 299 299 300
294 298 296 296 300 298 289 290 288 287 289 288 287 286 288 291 292 290 288 287 290 289 289 289 290 291 292 293 295 296 296 295 293 295 296 297 297 300 299 302 302 299 305 300 308 299 294 289 290 284 282 280 280 282 285 288 294 296 296 294 294 293 293 295 288 290 286 288 287 288 287 296 303 306 305 305 304 301 302 301 301 301 300 300 299 298 299 300
291 284 291 293 296 295 295 297 294 290 288 288 285 287 290 286 291 294 291 289 290 289 290 290 292 292 292 294 294 294 295 298 295 294 295 296 297 298 298 300 306 307 308 307 303 300 291 291 290 291 289 287 289 291 292 294 294 293 292 295 293 292 291 297 295 288 287 288 289 292 295 295 297 300 301 300 301 299 298 299 299 298 298 299 299 299 299 299
293 287 286 284 291 292 291 294 292 293 288 290 283 289 288 289 292 294 295 292 294 291 291 292 292 294 292 295 293 293 293 295 297 297 295 296 296 298 299 301 304 307 306 304 303 296 295 291 291 291 290 290 290 292 294 294 293 292 294 293 292 292 293 296 290 289 295 289 287 295 298 295 296 300 300 300 301 300 299 298 298 298 298 298 297 298 298 298
286 292 294 293 286 284 285 287 291 291 294 290 288 294 292 291 291 288 294 294 293 294 291 291 291 292 291 294 295 291 293 293 294 290 294 295 295 296 299 300 300 302 305 300 300 300 295 289 291 292 291 293 293 293 294 292 291 291 290 291 292 291 293 294 293 293 295 290 289 295 299 298 299 301 301 301 301 300 298 298 298 298 297 297 298 297 297 296
295 294 295 299 289 292 288 291 293 292 292 293 293 294 291 290 290 292 291 292 292 294 293 286 290 291 292 291 294 292 294 290 288 294 295 295 295 295 295 297 299 300 301 300 298 297 297 290 292 293 291 292 292 293 294 292 292 292 292 292 293 293 291 292 290 289 294 294 297 299 299 299 300 300 300 300 301 299 297 297 297 297 296 296 296 295 294 294
290 291 291 298 295 294 294 294 294 293 291 294 289 291 292 292 291 293 291 290 287 292 294 291 289 293 293 293 293 292 292 295 296 292 295 296 293 296 295 297 296 299 300 298 300 298 298 290 294 289 291 290 291 292 293 293 293 290 291 293 294 294 294 296 295 294 297 299 300 300 297 292 293 296 295 296 297 296 295 294 294 295 296 296 295 294 293 293
297 299 297 292 290 292 293 294 293 292 289 291 290 292 292 292 293 292 291 292 291 292 293 292 291 292 293 293 293 292 293 296 298 298 297 297 294 297 297 295 297 298 298 299 299 298 298 290 292 291 289 288 290 290 291 293 293 291 289 291 291 293 292 293 292 294 296 295 298 297 293 291 292 295 295 295 295 294 292 293 293 293 295 295 294 293 292 292
300 302 300 295 289 294 293 293 292 290 287 292 293 291 292 294 293 291 288 292 293 292 293 294 294 293 292 292 290 292 294 295 296 297 297 297 298 296 297 296 297 300 298 296 296 296 295 293 290 290 289 286 291 289 289 288 292 289 287 289 291 293 293 294 295 297 299 300 294 291 295 294 292 294 292 291 291 291 291 292 292 292 294 294 293 293 293 293
Wind_Speed
11 11 11 12 12 11 12 12 12 12 12 12 11 12 12 13 12 12 13 13 14 14 14 14 14 15 15 15 15 16 13 11 11 6 5 11 7 9 11 7 15 16 5 8 9 11 6 6 7 1 4 2 2 4 2 2 1 2 4 2 4 1 5 4 5 6 3 3 7 9 8 6 0 3 3 4 8 6 4 3 3 4 5 5 6 10 12 12
11 11 10 11 12 12 11 12 12 13 12 12 12 11 12 12 13 12 13 12 13 14 14 14 14 14 15 14 15 14 12 9 10 10 21 6 10 12 12 9 12 14 10 9 12 7 11 5 5 6 6 4 2 2 1 3 2 3 2 3 7 5 2 2 1 4 2 4 6 7 5 3 1 3 1 1 3 6 6 1 1 2 6 7 9 11 12 12
11 11 11 11 12 12 10 11 13 12 12 12 13 12 11 12 12 12 12 12 12 13 13 14 14 15 14 14 15 9 10 6 5 12 11 10 20 13 11 11 12 17 13 10 7 11 12 12 10 8 2 4 1 4 2 3 4 2 4 5 8 3 3 4 2 4 6 5 9 10 5 4 3 2 1 2 5 4 7 4 2 3 5 8 10 11 11 12
11 10 11 11 12 12 11 11 12 13 13 13 12 12 13 12 13 13 13 13 12 13 13 14 14 15 15 15 13 5 5 4 5 3 1 4 5 10 12 14 14 16 5 4 6 5 4 9 8 7 3 3 2 1 8 4 5 3 3 7 2 1 5 3 6 7 6 1 5 5 5 5 4 2 2 5 5 4 5 5 4 5 11 12 11 11 11 12
10 11 10 10 11 11 11 11 11 11 12 12 12 12 12 12 13 13 13 13 13 13 13 14 14 14 15 15 10 3 2 4 2 1 2 6 3 5 14 14 16 12 8 9 8 7 11 11 8 2 2 4 3 4 4 5 2 5 8 2 2 2 3 5 4 2 1 2 1 2 6 5 3 2 4 10 4 3 4 2 3 5 11 13 13 12 11 12
11 10 11 12 12 13 12 11 12 11 11 11 12 11 12 12 12 13 13 13 13 13 13 13 14 14 14 13 3 0 1 3 1 2 4 5 4 6 13 16 17 10 11 11 7 8 12 6 10 6 4 4 9 8 3 6 5 6 4 5 7 5 8 1 1 1 2 2 5 7 2 3 1 5 2 2 1 2 5 6 1 8 12 12 11 12 12 12
10 11 11 11 12 13 14 13 12 12 10 11 12 12 12 12 12 12 12 13 13 12 13 12 13 13 14 9 0 2 2 8 2 2 6 6 5 9 14 15 15 9 10 10 10 10 8 11 8 7 6 3 3 6 4 7 2 4 5 2 6 6 12 4 8 3 5 2 6 1 2 5 3 3 2 5 0 6 5 3 10 12 12 12 12 11 12 12
11 11 12 13 13 12 13 13 13 12 11 11 11 11 12 12 12 12 11 12 12 12 12 11 12 12 10 6 2 0 0 11 5 3 6 6 6 13 15 10 11 8 11 13 14 11 11 13 12 5 5 9 5 10 4 7 5 9 7 5 4 3 5 6 6 4 3 7 8 3 3 4 5 2 5 5 4 3 4 8 12 12 12 11 11 11 11 11
11 12 12 13 13 13 13 13 11 11 12 11 11 10 12 12 12 12 12 12 12 11 11 10 10 10 7 1 1 2 9 6 3 5 5 3 6 10 15 10 8 12 8 7 9 11 13 9 6 9 7 10 3 11 3 8 6 8 11 1 2 5 2 3 7 4 3 3 3 3 2 4 3 2 4 3 2 1 5 7 10 11 12 11 10 10 10 10
12 12 12 13 13 12 12 11 11 12 11 12 11 11 11 11 12 12 12 12 11 10 10 9 9 9 4 3 1 3 4 2 3 4 1 6 7 10 2 9 14 11 11 9 7 11 13 10 13 7 5 4 7 6 5 8 2 7 10 8 9 7 4 3 4 4 2 4 6 6 4 1 1 2 3 1 1 4 6 7 7 9 10 9 9 8 8 10
12 12 12 12 13 13 14 13 14 12 11 11 11 12 12 12 12 11 12 12 10 10 9 8 8 7 3 1 3 8 1 1 3 4 4 7 8 8 6 9 11 12 10 8 11 11 4 8 3 4 2 4 8 4 8 5 5 3 5 2 7 5 4 7 6 9 2 5 3 8 1 3 2 2 2 2 4 5 5 7 7 7 8 8 9 8 8 8
12 12 12 13 13 12 14 12 13 13 12 12 12 12 13 12 13 12 12 11 10 9 8 7 7 2 3 1 5 9 2 3 4 5 4 5 5 2 1 5 6 8 13 10 6 5 3 6 7 3 2 6 7 5 6 3 5 3 6 4 3 1 5 5 7 1 3 3 4 8 5 6 5 5 1 3 6 6 5 6 6 6 6 7 8 7 7 7
12 13 13 14 14 13 13 14 12 13 12 12 11 12 12 12 13 13 11 11 9 8 7 6 4 3 2 4 11 10 7 2 4 5 5 3 2 3 3 4 2 3 4 7 8 7 3 5 7 5 1 3 6 3 3 5 3 4 3 3 3 3 5 2 2 1 4 2 2 4 4 5 3 4 3 8 8 7 6 5 6 5 5 6 7 6 6 7
13 14 14 14 13 13 13 13 13 12 12 11 12 14 14 13 14 13 12 11 10 8 6 5 1 2 4 7 6 3 6 6 8 9 6 4 4 1 3 2 2 3 3 4 3 3 4 2 4 3 2 3 3 1 4 3 1 7 3 0 2 3 3 1 2 3 4 2 4 3 5 2 2 4 6 10 10 10 8 6 6 5 5 5 6 6 6 7
13 14 14 14 12 12 13 13 12 13 13 13 13 15 14 15 15 14 12 10 8 7 5 6 3 2 1 10 6 14 15 4 8 7 5 8 8 2 3 2 2 3 1 3 2 1 3 0 1 7 5 2 1 3 1 2 2 2 7 5 1 4 2 4 2 5 5 3 2 3 5 3 2 1 4 9 9 6 3 6 5 5 5 5 5 6 5 5
12 13 13 14 13 12 11 11 12 12 12 13 14 15 16 17 17 15 13 10 8 8 4 1 5 4 3 10 2 3 3 3 6 8 10 9 10 6 8 5 4 3 1 2 2 2 3 3 3 2 3 1 2 2 3 5 3 2 5 2 5 2 2 3 2 2 0 2 2 5 1 1 3 1 2 6 7 6 2 3 4 5 5 4 4 5 5 5
12 13 12 13 12 12 11 10 11 13 12 12 15 16 18 17 17 16 11 7 4 4 5 2 5 4 3 2 4 4 4 5 0 2 4 7 10 8 12 7 4 5 2 4 2 2 3 6 1 2 3 2 1 4 6 5 3 5 1 3 1 7 3 2 1 3 1 3 6 3 3 2 2 3 2 7 7 7 5 6 5 5 4 3 3 4 3 4
12 13 13 13 13 12 12 12 12 14 13 12 13 16 15 19 7 5 5 5 3 3 5 1 3 3 10 4 6 2 1 2 2 1 5 3 7 11 11 5 4 8 6 5 2 4 1 4 2 5 4 4 4 6 10 9 7 6 6 5 3 1 1 0 2 2 2 1 6 4 6 6 3 2 2 7 7 7 6 5 4 5 4 3 5 4 2 4
13 12 13 12 11 11 10 10 12 12 12 11 13 15 13 2 5 5 7 7 6 3 1 6 6 6 1 1 2 4 4 3 2 5 6 10 5 4 5 5 11 14 7 6 4 5 2 3 2 4 11 7 8 7 6 4 6 9 9 7 4 6 4 4 2 2 1 2 4 6 9 9 6 3 3 4 7 7 7 5 4 5 4 4 6 3 3 3
12 12 12 11 11 11 10 10 11 12 12 8 8 7 1 3 3 3 2 5 8 5 2 5 11 4 8 2 2 6 7 1 3 2 6 5 10 9 8 7 4 2 10 8 7 6 4 9 11 12 9 8 6 7 9 3 4 6 4 5 4 5 2 3 2 3 3 1 5 6 6 4 4 6 7 2 3 7 7 8 6 6 5 4 5 1 3 4
13 11 11 11 10 10 9 10 10 9 8 4 7 5 2 1 3 4 4 11 12 11 9 5 15 11 7 4 4 11 11 4 2 1 8 7 9 15 7 8 9 6 5 6 10 3 5 7 10 7 8 10 10 6 6 8 2 8 7 5 3 3 5 2 3 3 2 3 2 1 3 1 6 6 7 2 3 8 8 8 10 9 6 4 5 3 0 4
11 11 11 11 10 10 9 9 9 8 3 0 3 3 4 4 2 4 2 5 8 17 15 14 7 13 11 12 3 4 4 5 12 2 1 11 11 12 7 7 9 9 4 6 5 6 8 10 6 7 6 6 5 5 7 10 6 2 4 4 3 4 2 2 1 1 2 1 1 1 5 5 6 6 7 7 2 2 2 6 7 7 7 5 4 2 1 3
11 11 11 11 10 11 10 9 7 5 2 4 5 4 5 2 1 4 2 5 8 8 13 13 11 16 16 4 7 3 6 9 8 4 6 10 10 7 11 8 9 7 6 10 11 7 8 7 9 5 8 10 4 4 6 5 2 4 4 4 5 3 5 6 2 2 2 1 2 5 10 5 5 3 6 8 5 3 5 4 1 2 5 5 4 2 1 4
11 11 10 11 10 10 9 8 6 5 2 6 8 10 3 3 5 7 1 4 5 4 10 11 15 7 11 7 8 14 11 5 7 7 7 10 12 6 11 11 9 7 10 10 11 12 6 8 7 9 8 11 9 7 9 7 5 2 3 4 3 4 2 2 4 1 0 1 1 10 7 5 6 4 4 7 4 5 9 7 8 8 7 1 4 5 3 4
10 10 10 10 10 11 8 9 4 3 2 5 9 10 9 9 6 2 2 3 3 6 3 1 6 8 6 5 9 10 9 3 10 2 8 13 9 8 8 5 6 8 10 7 8 9 5 6 12 11 8 7 10 7 7 9 6 3 5 7 6 4 3 1 3 2 2 3 4 3 5 2 3 4 5 5 4 7 7 8 9 8 8 6 1 6 7 7
10 10 10 10 10 8 8 5 1 2 6 5 2 2 2 2 4 2 3 2 5 2 2 5 9 6 11 7 10 6 9 6 11 10 6 10 7 6 6 7 4 11 9 11 10 4 4 6 11 12 11 10 11 9 8 7 6 6 6 7 5 4 4 2 3 2 4 4 5 2 4 4 2 3 5 6 3 6 7 10 10 9 9 6 4 4 5 7
11 10 10 9 9 5 4 1 1 6 6 3 2 6 5 5 5 4 3 1 3 5 7 3 6 1 4 10 13 11 6 6 4 6 9 6 12 2 12 7 3 4 4 4 2 7 6 8 5 7 9 9 8 9 6 7 6 7 1 9 7 5 6 7 5 5 1 3 2 1 2 6 6 2 4 5 1 7 9 10 10 10 10 9 7 5 5 5
10 10 9 9 9 4 4 5 6 6 6 2 4 6 7 5 3 2 2 1 2 4 3 3 5 3 2 11 15 13 1 9 8 7 12 8 7 1 6 12 12 13 8 6 11 3 8 8 9 10 8 7 9 5 9 9 7 2 3 9 11 11 9 4 4 3 1 3 5 3 3 4 2 3 2 4 3 7 9 9 9 9 9 9 9 9 7 6
11 9 9 9 9 5 3 5 7 9 2 3 7 8 6 6 2 2 1 1 3 1 2 8 2 5 4 11 10 8 2 3 1 7 7 6 4 4 7 8 5 9 3 8 8 4 3 11 12 12 10 8 4 6 10 9 9 3 5 5 5 5 5 3 3 4 2 3 5 7 2 4 2 2 1 3 5 6 7 7 7 7 8 8 8 9 9 9
11 10 8 9 6 2 2 2 9 8 5 8 7 9 7 3 4 3 2 3 4 1 1 2 5 5 8 13 9 7 3 2 2 5 10 7 9 3 5 1 8 10 8 1 3 2 1 3 5 4 8 7 8 3 9 13 1 8 8 8 5 3 2 2 3 1 3 4 3 3 2 3 6 1 2 3 3 2 4 4 6 7 8 8 8 9 9 9
8 10 9 9 6 3 4 6 5 4 3 4 8 8 3 2 2 2 3 3 1 3 2 4 3 9 10 13 8 8 1 1 7 12 10 6 5 3 7 6 2 5 3 3 5 2 3 4 5 3 3 4 6 6 2 3 4 11 4 5 7 3 1 2 1 1 2 3 2 2 2 5 7 3 1 2 3 4 5 4 6 8 8 8 8 8 9 10
9 9 11 8 6 4 6 3 3 1 5 7 8 2 3 3 3 5 4 3 5 3 4 2 2 6 10 3 2 12 9 5 8 12 13 12 10 10 11 9 9 8 8 8 9 2 4 5 1 1 3 11 7 8 3 4 3 5 4 9 11 5 3 4 3 6 6 2 2 2 3 2 5 3 5 4 5 4 5 5 5 7 8 9 9 9 8 8
7 10 13 10 8 8 11 9 5 5 6 7 5 2 3 2 6 3 4 3 3 4 1 5 3 6 8 8 7 8 5 7 6 6 12 7 11 6 3 5 8 5 9 5 5 6 3 1 1 1 4 4 12 11 7 6 8 7 11 9 11 9 7 3 1 2 1 1 0 2 2 3 5 4 2 5 4 6 6 7 8 8 10 10 9 9 9 9
10 11 8 6 8 9 9 6 5 2 7 6 3 4 2 3 4 3 8 2 3 2 3 2 11 4 10 10 7 11 7 1 11 8 9 9 10 9 6 3 8 5 4 4 7 7 7 8 9 8 6 7 12 8 11 5 8 7 1 9 5 5 5 6 6 7 6 4 1 1 4 3 7 5 6 3 3 7 6 7 9 10 10 10 9 11 12 10
10 9 8 8 9 10 11 10 6 5 2 2 3 3 6 6 2 1 2 2 1 3 6 7 8 4 9 7 3 12 4 3 5 11 9 11 8 7 9 9 4 4 4 9 3 2 7 2 1 10 1 11 11 7 9 11 9 5 2 3 4 8 1 4 0 1 4 3 2 4 1 2 3 2 5 3 5 7 7 9 9 10 9 10 11 10 9 9
6 6 5 9 8 8 8 7 8 8 5 2 5 4 7 4 3 1 2 2 3 7 11 12 5 6 5 6 2 15 3 4 7 7 0 8 8 10 6 5 8 7 5 4 4 3 3 6 1 5 3 12 14 9 4 12 8 7 4 9 3 4 9 5 2 3 2 2 1 2 1 3 4 4 7 4 3 6 7 8 9 9 9 10 10 10 10 9
6 7 6 6 8 6 6 7 9 10 5 3 5 6 4 3 4 1 2 4 2 4 5 4 2 5 6 7 5 13 5 6 5 6 4 4 2 5 7 6 3 6 7 7 2 3 6 4 2 6 5 7 3 9 9 3 3 8 7 7 4 1 3 4 5 0 1 4 2 0 2 2 5 4 10 8 7 5 6 8 9 9 9 10 9 9 9 9
6 6 9 11 9 7 8 10 13 8 3 3 6 6 3 6 2 2 2 5 4 4 1 2 4 2 5 5 6 12 5 6 6 3 8 6 2 2 5 5 4 9 8 3 5 3 3 4 3 3 2 4 4 9 5 3 4 8 8 9 6 3 7 2 3 3 5 2 2 1 2 4 7 2 9 12 11 9 8 7 8 9 9 9 8 9 9 8
7 4 5 1 3 10 10 14 8 6 2 5 5 9 2 5 2 2 3 5 5 2 1 4 3 3 1 5 4 6 9 7 7 4 7 4 3 4 8 4 5 7 9 6 3 2 2 2 2 1 4 4 5 7 7 6 2 5 6 8 3 1 3 5 0 3 4 3 4 1 2 3 7 3 10 12 11 10 9 7 9 10 10 7 7 6 7 6
5 3 2 4 5 9 14 10 5 2 2 6 4 5 1 2 3 4 2 2 2 4 4 3 5 6 6 4 7 6 2 7 10 3 3 3 2 3 3 2 6 7 4 4 3 2 1 2 4 2 1 4 7 4 7 10 8 5 9 5 3 3 2 3 3 1 3 5 2 5 3 5 4 3 8 11 12 11 9 9 9 8 9 9 8 6 6 6
3 3 1 4 8 10 10 4 4 5 5 1 2 3 3 2 3 3 1 2 2 4 8 6 4 5 3 4 4 6 4 4 5 4 2 4 2 3 4 4 4 8 3 0 2 3 1 0 3 3 7 5 1 0 3 7 10 10 9 7 7 8 8 9 3 2 2 5 5 5 3 3 1 1 6 11 11 11 11 11 9 9 9 9 7 7 6 5
3 2 2 6 10 10 5 7 2 2 2 5 4 3 2 1 2 6 7 4 6 3 3 5 9 10 9 9 5 4 5 4 1 3 2 5 2 1 2 0 2 8 8 4 5 2 2 2 4 3 3 3 1 3 2 2 3 3 5 7 4 3 6 4 6 3 3 4 3 2 1 1 3 0 9 12 11 12 12 11 10 9 9 8 7 7 6 6
3 1 4 9 9 3 2 2 1 3 5 2 2 3 2 2 1 2 3 1 3 3 4 5 9 6 8 8 5 3 6 4 1 3 3 2 3 3 2 4 3 4 7 2 3 3 2 1 3 3 2 2 1 1 5 2 3 8 5 3 4 7 6 6 4 8 5 4 4 2 3 1 3 4 9 12 12 12 10 12 12 9 8 8 8 7 7 7
2 2 2 4 6 2 2 3 5 5 4 3 1 3 0 1 1 2 4 3 3 2 4 7 6 8 4 3 4 6 3 4 2 3 3 0 3 1 1 3 8 7 6 7 6 6 3 3 2 3 3 3 4 4 3 2 3 3 3 2 2 4 6 5 6 2 4 5 2 8 6 2 7 6 9 12 13 12 12 11 10 10 7 8 7 6 5 7
2 2 3 4 4 4 2 1 1 2 6 3 1 4 3 2 4 9 7 4 6 8 3 7 7 3 4 2 2 3 2 2 4 3 2 1 2 0 2 4 5 4 1 0 1 8 2 2 3 3 5 7 6 6 6 6 4 2 3 3 2 5 11 7 4 3 4 4 2 3 2 2 8 8 12 13 13 12 11 12 10 8 9 8 6 6 6 7
2 3 2 4 3 3 3 3 3 1 2 3 2 3 2 3 3 4 9 8 11 9 9 8 7 3 3 3 4 3 4 3 3 4 3 3 2 0 1 1 3 2 4 8 6 7 4 3 3 2 3 2 2 2 3 1 4 4 2 2 3 2 4 4 4 3 5 6 4 1 5 10 11 13 15 14 13 14 12 10 10 9 9 8 7 7 7 7
3 1 4 5 1 4 5 4 4 2 2 4 2 3 5 6 3 5 8 5 7 7 5 6 2 0 3 4 5 4 3 4 5 9 1 5 1 2 2 1 4 8 12 8 3 6 5 4 4 9 10 4 3 2 3 3 5 3 6 3 2 2 1 6 6 5 7 9 4 1 10 15 15 15 14 15 12 12 11 11 11 9 8 8 7 8 8 9
2 1 1 3 2 4 4 5 6 5 5 5 2 1 2 3 2 2 1 6 3 3 3 2 1 4 6 3 6 5 2 5 4 3 3 2 5 1 4 5 3 4 1 3 3 3 4 3 1 3 8 8 6 6 6 9 8 7 7 4 2 2 2 7 4 5 10 5 5 9 14 10 14 15 14 13 13 12 11 11 11 10 8 8 8 10 10 9
2 2 2 0 2 0 4 1 6 7 4 3 1 2 2 2 4 5 2 3 3 2 1 1 5 6 4 3 1 6 7 9 2 2 3 5 3 4 4 3 5 4 4 4 4 2 5 4 2 6 11 10 9 7 4 12 9 12 10 8 5 3 4 5 5 2 3 1 0 14 14 7 6 8 12 11 12 13 12 12 11 10 9 9 10 10 9 8
1 1 0 0 2 2 2 1 2 4 4 4 2 4 3 4 3 3 0 1 3 2 3 4 2 6 4 2 3 5 2 2 12 9 4 6 2 0 3 1 5 3 4 4 2 2 2 2 4 1 4 7 8 6 6 4 7 12 10 10 8 7 8 7 6 4 3 7 9 15 14 7 3 6 12 11 12 11 12 13 11 10 9 9 10 10 9 7
3 2 2 3 2 2 1 1 2 4 1 2 3 2 2 3 2 2 1 2 4 4 3 7 4 8 8 12 11 8 3 2 7 6 7 3 7 3 3 2 1 6 3 3 3 3 5 3 1 1 3 2 4 7 7 10 12 15 12 12 11 6 5 3 3 2 1 10 13 14 10 7 5 8 12 12 12 12 12 11 10 9 9 9 10 10 9 6
3 2 3 3 2 2 2 1 2 3 4 3 5 4 3 2 1 3 1 3 2 2 3 1 1 9 7 13 9 5 6 6 8 8 8 9 10 8 8 6 2 3 4 3 1 3 2 8 4 2 6 1 1 2 2 1 7 5 5 5 6 4 3 5 6 5 3 12 15 9 7 6 10 10 13 10 11 11 10 8 10 10 9 10 10 9 8 6
Wind_Direction
325 325 337 336 330 330 333 328 325 326 327 331 328 325 325 328 330 331 331 330 332 333 332 334 337 335 333 335 331 331 339 330 313 307 280 236 172 182 179 111 168 189 177 121 127 129 101 112 113 181 121 169 63 162 136 174 101 192 180 149 201 205 203 199 211 197 59 305 334 340 355 319 346 69 92 105 71 79 104 97 102 81 65 66 113 129 134 133
329 328 324 331 331 329 330 328 330 329 329 323 325 327 325 325 326 327 327 330 330 330 335 333 334 336 333 332 334 338 342 309 296 278 242 111 216 190 178 158 156 170 147 136 151 142 131 132 133 148 135 130 306 118 205 157 247 171 112 204 226 182 219 184 211 231 282 325 319 311 343 295 28 150 113 168 116 146 161 129 88 125 90 99 119 129 137 134
328 328 328 331 323 319 330 331 324 330 328 328 323 324 326 322 321 325 327 327 329 329 332 334 334 334 333 335 330 354 333 311 267 257 294 188 234 212 172 161 149 155 168 152 181 157 162 165 154 136 85 114 355 141 202 138 196 183 194 197 228 158 253 225 223 268 220 306 311 328 355 335 338 333 57 252 141 190 191 176 178 194 155 134 134 139 139 138
331 327 330 331 329 325 320 324 324 322 324 323 329 327 325 324 322 326 329 325 328 329 331 331 332 334 330 332 341 348 314 265 258 270 317 293 238 215 186 171 155 165 122 109 144 120 81 114 141 138 115 133 128 177 173 163 206 140 210 216 231 153 251 233 201 245 265 218 291 314 309 324 359 282 260 156 145 206 256 241 210 198 164 153 147 144 144 141
328 333 331 333 332 336 337 329 319 318 319 318 319 316 318 318 319 322 323 323 326 331 331 330 330 331 332 330 347 11 284 292 296 230 265 305 261 187 178 163 159 163 155 128 102 97 132 137 139 61 117 136 138 139 226 167 262 134 225 279 203 128 242 250 246 214 212 130 210 312 331 358 301 258 214 186 185 169 221 335 269 65 147 150 149 149 145 145
331 334 332 329 331 328 320 321 324 317 319 321 319 321 316 316 316 318 320 322 325 330 329 330 329 334 329 336 342 318 248 263 48 42 317 304 310 166 165 157 154 147 134 139 132 131 121 137 151 156 158 151 169 184 165 181 158 209 211 257 243 227 264 317 80 140 171 299 310 301 319 297 50 288 271 252 305 328 331 299 55 115 137 143 141 145 145 148
329 329 330 328 326 326 322 312 319 325 317 318 317 314 315 320 318 316 319 322 323 329 325 328 330 331 337 337 143 328 246 291 309 233 5 67 75 134 149 147 148 148 141 121 138 151 160 150 174 170 148 118 190 207 146 169 203 251 226 182 251 213 240 260 283 221 279 289 270 229 11 293 319 269 90 250 102 310 332 110 113 121 128 137 139 148 147 153
328 329 331 327 328 327 321 314 308 318 322 318 318 318 315 312 318 317 320 317 323 325 323 326 330 334 356 349 301 304 122 247 290 307 9 82 120 136 135 129 151 153 158 161 155 155 152 152 178 130 173 175 173 188 151 144 176 207 244 222 257 233 243 262 264 273 261 255 262 263 254 251 218 223 141 237 324 339 85 111 117 124 128 136 139 145 151 154
324 327 330 327 324 320 321 317 312 306 308 317 315 312 309 310 312 319 315 315 319 319 318 327 329 336 79 62 17 290 244 254 276 330 308 108 121 128 131 137 172 165 162 149 162 149 152 192 146 181 193 191 155 180 173 174 209 208 225 168 232 246 299 282 282 265 236 258 197 212 202 265 243 76 194 277 323 103 127 116 120 128 129 137 142 147 156 161
322 327 326 324 321 318 319 317 319 317 313 309 312 311 313 312 312 311 311 310 315 317 312 324 321 336 350 352 185 241 284 265 326 333 61 123 127 134 158 145 159 156 146 161 137 155 185 178 180 183 120 73 164 174 154 205 210 175 213 222 243 262 317 299 254 274 286 260 192 241 139 117 123 215 206 167 215 155 139 119 128 135 139 142 147 153 160 166
320 322 324 323 322 324 316 315 312 308 312 312 311 309 313 316 313 308 305 305 311 309 310 309 337 326 17 8 199 233 230 356 23 33 86 120 131 153 164 166 157 161 147 152 172 181 97 132 112 118 246 193 167 135 176 201 124 159 187 210 247 260 257 253 280 268 298 286 174 212 156 180 79 183 252 177 183 175 146 138 144 138 147 150 153 161 164 171
320 322 322 319 315 325 316 313 318 313 305 310 312 308 304 311 312 306 300 304 303 306 304 311 303 312 223 215 233 220 19 77 56 50 76 107 117 100 156 194 177 163 149 165 186 165 172 146 144 152 187 133 171 111 226 146 183 180 174 219 220 224 257 204 244 359 182 255 173 169 185 165 164 199 210 177 165 173 157 149 147 151 156 161 162 165 168 176
318 319 318 320 318 315 312 306 312 319 314 313 314 306 303 303 301 298 298 296 301 297 304 308 293 241 281 271 237 241 268 250 329 354 350 357 107 75 124 180 33 33 340 158 162 186 136 146 179 154 101 190 148 181 88 154 131 116 176 247 259 255 260 234 103 142 191 236 216 209 216 201 173 170 157 174 169 167 158 159 164 167 172 168 171 172 173 182
316 316 320 321 317 314 311 307 304 317 318 317 309 307 302 303 297 295 292 286 292 295 300 297 301 234 194 254 271 265 234 266 287 289 257 214 212 174 105 161 78 42 48 100 144 189 125 338 160 126 99 200 159 157 158 69 103 194 135 167 255 210 223 99 50 88 217 146 220 245 228 190 352 232 174 179 181 177 171 174 173 175 182 179 184 181 184 188
313 321 321 318 319 315 314 315 307 313 317 314 307 303 303 298 294 290 288 286 282 288 277 257 233 148 215 267 275 275 256 205 254 233 160 172 181 98 169 107 137 77 16 63 100 165 120 86 133 161 188 104 200 204 104 152 47 107 157 198 125 214 208 313 123 198 225 70 353 202 252 236 269 61 121 183 189 212 191 164 177 181 196 188 193 191 186 177
317 318 320 316 316 318 317 316 318 314 317 314 310 306 304 297 291 285 278 277 279 258 241 181 180 206 311 284 301 302 99 178 269 200 198 177 178 182 143 111 106 92 102 30 50 86 108 152 173 179 114 114 156 159 113 155 151 19 221 112 161 185 229 312 115 240 349 89 64 237 236 99 224 342 127 177 188 198 209 191 199 199 214 203 210 201 191 145
316 317 317 315 313 310 312 319 325 321 318 318 317 310 304 297 289 276 257 245 242 227 190 181 166 190 241 211 313 251 232 219 179 91 187 208 173 138 127 119 136 121 94 65 61 98 97 166 91 110 11 159 153 167 163 190 165 170 336 143 139 197 164 199 22 102 167 220 177 216 216 218 319 326 127 164 193 195 199 206 215 218 229 218 230 223 185 118
309 312 313 316 316 309 306 312 321 323 322 321 319 312 307 304 312 145 150 177 178 184 186 266 174 213 259 286 276 165 354 285 199 126 160 173 161 150 142 140 121 130 133 104 63 173 202 153 276 183 158 160 177 182 193 188 169 159 162 157 157 73 258 255 156 114 170 40 195 179 240 251 268 334 121 160 188 210 217 210 223 235 245 240 249 245 122 85
308 308 311 312 310 313 324 324 313 321 326 335 319 310 296 355 87 93 127 156 147 101 189 195 178 185 104 238 287 348 310 290 56 158 149 148 166 120 69 83 135 140 150 158 156 166 160 111 145 172 189 181 190 194 185 133 157 165 176 175 142 162 165 187 207 328 328 162 170 187 217 225 243 264 102 135 183 206 222 230 236 242 242 238 249 249 73 78
308 310 312 312 310 312 318 319 309 312 326 325 336 331 342 196 173 126 164 216 230 201 11 172 210 325 330 228 64 339 248 203 211 211 141 163 141 148 110 132 104 57 152 173 141 201 170 164 184 193 182 167 156 174 182 161 163 104 93 134 147 151 159 285 273 287 358 232 209 196 226 233 238 35 22 16 175 204 221 226 233 239 237 238 257 310 60 68
315 317 313 309 312 317 316 315 317 318 336 353 324 330 196 162 192 192 188 236 243 273 262 225 205 223 242 74 14 25 13 321 56 293 178 171 171 150 161 146 156 156 186 151 146 121 191 182 195 160 151 163 178 174 92 101 106 136 127 132 137 187 181 151 106 34 36 235 83 347 192 336 16 13 23 67 176 205 222 236 244 246 251 256 274 329 113 107
312 314 311 312 312 308 314 318 321 332 32 335 329 277 283 248 3 34 318 279 222 231 241 246 206 251 261 270 358 12 1 310 304 280 157 166 181 177 168 166 163 177 122 130 100 148 187 205 149 174 137 105 100 143 159 141 139 111 165 134 158 186 269 322 275 328 35 242 46 177 117 34 21 36 37 38 141 92 349 244 251 263 257 245 263 239 148 124
312 313 310 309 308 314 308 308 321 341 306 277 274 237 244 235 335 1 313 275 276 223 220 224 227 238 254 243 249 164 213 232 255 265 157 186 177 210 146 165 171 141 151 169 170 152 181 205 182 139 140 123 97 142 133 92 82 150 140 168 180 115 179 175 86 23 23 350 125 144 97 67 36 52 52 38 25 24 15 8 316 323 262 228 222 223 194 109
310 307 307 308 312 306 313 321 333 319 255 262 253 234 246 295 316 335 237 241 299 256 196 205 201 206 226 193 189 176 188 220 183 260 173 178 177 153 159 165 147 151 176 187 173 173 179 162 134 144 153 145 139 164 157 171 178 341 211 202 159 172 203 207 136 280 20 95 131 125 101 97 29 34 35 29 13 49 26 38 37 28 26 10 131 105 93 119
305 302 305 307 313 312 332 340 317 276 327 276 255 260 260 270 290 299 273 271 221 271 164 269 174 234 213 107 136 162 207 215 213 234 163 186 149 158 166 136 148 185 168 184 159 166 158 148 138 139 144 137 132 152 179 163 171 177 248 216 202 182 186 203 56 319 177 130 213 226 148 80 62 59 32 2 7 46 28 38 30 21 15 11 219 102 98 98
299 298 301 304 313 319 350 308 232 322 321 261 227 72 351 282 275 234 242 305 282 210 122 230 152 224 140 173 159 154 127 228 202 210 175 191 184 163 121 170 198 179 162 167 174 183 149 144 165 155 155 154 152 161 188 191 171 178 205 200 204 183 179 170 146 147 187 186 160 14 241 129 112 68 20 2 0 57 55 45 35 26 17 16 38 90 110 116
298 295 298 311 306 357 340 252 45 311 292 252 91 356 339 329 313 216 225 121 294 173 156 30 191 175 198 168 151 146 176 230 132 167 184 172 187 195 162 163 97 64 150 150 120 191 124 144 139 131 133 144 145 176 172 183 148 196 239 174 181 171 200 212 173 213 243 12 47 122 278 146 153 87 13 325 77 54 45 38 36 32 29 38 45 65 109 113
292 293 296 298 303 303 274 293 300 281 245 60 327 339 319 324 329 168 258 31 264 148 158 189 234 118 186 154 164 171 315 118 144 192 192 166 190 102 201 174 183 162 171 172 189 106 148 159 156 155 154 164 180 158 152 191 174 198 167 175 177 199 211 171 194 182 235 207 161 168 245 149 134 84 11 348 77 35 39 31 30 34 41 43 43 48 51 95
286 284 285 294 301 299 260 264 277 257 256 327 325 317 320 315 220 230 274 126 242 97 84 117 225 133 80 162 188 204 106 226 311 130 156 155 256 168 181 178 153 153 166 208 172 126 258 180 176 153 163 184 156 185 164 174 182 227 121 86 68 65 65 196 182 158 195 200 199 169 314 164 141 43 350 44 60 41 26 29 36 41 52 52 47 47 45 41
284 281 291 299 304 270 220 230 245 243 268 305 306 306 300 185 181 209 97 225 346 82 91 69 210 168 155 157 192 224 178 102 123 111 153 170 187 50 28 91 150 158 168 98 118 102 117 358 161 159 187 162 168 139 166 182 184 114 134 120 111 77 95 88 81 134 157 211 185 19 318 251 149 164 1 27 37 11 5 39 47 55 64 70 59 53 52 51
289 287 285 290 271 269 296 266 261 255 220 298 316 301 183 200 225 124 191 231 225 64 166 146 173 131 153 156 177 214 255 118 134 148 148 153 153 95 137 118 61 127 119 148 163 142 80 105 154 217 151 81 116 105 7 331 126 151 159 146 135 107 128 141 152 179 204 189 69 10 326 291 183 174 162 104 100 47 31 41 51 66 69 64 53 52 53 53
285 284 282 277 250 213 234 253 146 123 354 340 328 291 202 171 340 199 206 350 260 355 332 2 141 165 183 203 135 175 173 134 161 161 158 172 162 166 179 179 163 154 182 176 188 84 173 168 223 134 211 143 146 138 120 165 182 212 155 163 176 163 149 183 193 195 202 176 58 306 333 147 41 48 130 105 70 75 63 60 72 72 75 73 74 65 57 56
285 283 274 266 270 255 246 254 273 315 341 339 324 227 201 155 214 201 271 318 119 340 358 20 291 186 179 185 197 176 165 166 167 181 150 155 165 165 13 188 165 161 181 165 141 165 210 293 285 187 137 192 155 170 152 171 201 190 190 173 175 168 171 162 160 13 8 101 162 322 296 67 92 124 140 127 73 79 82 78 76 77 79 82 80 77 73 69
284 281 278 258 256 249 252 247 248 284 310 313 276 165 7 189 246 191 236 309 289 55 25 352 344 188 177 196 179 159 177 286 170 168 169 158 171 168 175 204 159 123 80 148 177 176 169 194 227 158 199 150 175 184 166 141 163 204 47 187 195 155 163 159 173 173 180 144 111 30 210 132 168 145 143 103 90 106 90 85 83 81 80 84 86 77 68 64
280 276 269 266 256 249 239 233 224 218 207 264 197 185 192 213 326 231 168 340 332 4 322 318 309 277 197 225 133 181 177 149 194 152 166 157 184 171 171 176 201 105 123 149 240 133 201 257 226 180 73 156 173 164 149 141 165 193 168 6 164 193 119 146 88 114 135 127 137 31 28 30 54 115 123 118 114 98 94 82 83 74 71 73 69 63 62 59
284 269 248 265 257 252 211 215 198 186 194 207 183 190 213 187 197 43 70 298 10 357 327 314 242 229 198 199 185 184 265 171 175 155 179 184 153 169 166 162 186 185 152 160 160 136 96 195 98 137 65 169 177 134 185 160 177 168 163 199 175 62 107 101 96 20 49 66 69 14 287 158 130 199 161 185 133 96 90 90 81 78 75 69 63 61 59 56
285 296 277 266 249 200 176 171 167 163 178 227 185 208 217 240 241 201 343 34 333 27 3 308 256 198 176 183 173 185 197 113 168 160 175 124 166 190 167 188 158 161 204 123 199 266 145 172 352 150 186 226 38 159 153 211 117 114 201 176 115 45 38 135 154 73 33 181 93 22 181 172 180 163 155 172 190 147 114 97 98 89 79 69 59 59 59 55
302 290 282 269 256 159 148 158 151 154 188 202 203 219 173 230 172 188 60 12 14 74 65 246 288 266 168 161 178 180 195 175 169 158 159 202 183 137 163 170 184 175 198 246 156 196 196 161 162 253 148 101 151 125 109 94 294 175 173 151 178 154 188 355 114 165 157 136 133 141 264 251 233 123 166 176 181 161 130 114 110 101 87 80 68 63 61 55
291 296 293 68 35 134 143 152 152 140 187 184 218 215 186 242 321 322 12 347 309 35 319 226 254 318 125 182 153 178 170 181 149 151 142 244 176 203 188 129 180 208 191 167 119 136 355 151 97 260 141 149 150 173 177 164 96 14 119 144 324 213 137 160 215 116 149 129 132 148 125 235 213 209 184 175 171 153 147 132 105 91 88 87 82 70 59 54
271 236 219 63 117 124 142 153 133 158 227 208 188 228 44 301 297 297 309 324 339 58 250 276 242 272 288 278 177 160 170 130 159 195 137 218 143 349 231 286 158 185 179 217 112 227 132 285 138 122 271 161 168 211 186 159 167 146 165 160 140 37 343 67 48 46 169 148 168 132 189 250 235 148 159 172 164 149 150 129 106 96 89 85 78 71 69 61
227 262 52 117 131 138 148 172 153 185 196 263 264 268 356 277 326 284 167 160 245 194 253 255 291 273 334 357 240 157 124 134 145 154 178 167 186 182 241 184 170 161 116 61 170 174 88 350 129 133 144 183 82 99 256 187 162 163 163 165 146 132 140 166 165 100 69 140 154 152 199 236 56 293 162 161 154 146 129 112 103 103 98 91 79 71 61 55
272 226 78 133 140 158 169 145 206 172 214 207 198 172 225 217 295 305 313 306 193 258 207 272 248 253 261 245 235 172 123 114 154 127 250 164 199 319 145 214 192 153 151 177 188 222 149 134 101 102 114 98 108 47 270 218 60 64 162 171 174 96 135 167 165 162 92 38 115 82 149 150 54 349 145 138 140 142 136 126 120 111 102 92 83 72 61 48
230 42 81 146 162 185 293 73 82 176 213 239 350 285 251 287 223 271 267 111 322 198 273 239 245 228 234 227 228 139 131 79 230 173 138 110 142 215 155 194 169 164 151 133 68 158 106 79 98 75 101 10 27 182 95 38 134 117 37 52 152 162 172 165 175 157 137 140 147 164 186 102 151 138 141 137 131 126 127 127 122 112 102 87 74 62 51 45
306 103 83 132 188 303 232 163 184 202 227 311 183 261 294 257 149 261 237 180 171 267 236 267 284 200 275 187 208 161 198 117 330 120 106 214 116 136 192 198 186 158 166 187 176 171 172 288 150 132 110 91 99 128 123 95 72 71 116 81 23 81 68 87 83 73 118 193 127 159 186 158 158 151 133 126 120 117 119 118 120 114 105 93 81 63 53 49
288 81 69 134 212 305 235 5 184 162 209 211 168 227 229 234 217 223 240 231 194 235 216 238 228 5 269 234 101 88 42 134 128 357 79 124 90 4 27 170 220 183 8 291 63 140 72 143 153 166 153 153 152 172 167 170 140 100 66 102 26 135 135 147 133 168 169 161 168 189 132 82 137 155 144 135 123 112 110 108 97 96 99 92 85 75 59 52
258 141 83 124 234 283 277 262 278 250 162 198 269 265 184 239 272 237 213 243 227 236 232 267 320 206 248 202 86 48 56 5 113 159 164 156 140 77 297 27 170 146 123 112 89 89 108 74 24 164 164 140 91 86 360 52 123 143 116 81 115 27 3 55 92 153 187 151 188 200 141 145 166 174 157 143 134 131 124 114 108 103 95 91 88 78 68 58
311 165 147 155 237 273 272 278 270 209 215 163 186 191 202 210 270 297 175 228 201 201 229 178 149 348 250 120 117 86 0 82 56 112 158 137 262 82 327 49 95 101 115 91 43 87 101 82 50 68 52 39 355 350 27 3 110 59 125 108 26 86 309 131 151 171 111 121 190 125 162 151 184 173 155 147 137 128 122 120 118 114 113 108 93 81 68 59
227 55 182 201 196 187 203 253 221 233 264 189 240 303 232 199 198 238 302 233 305 193 242 159 120 154 278 214 135 104 107 69 52 104 115 11 128 20 92 32 80 304 3 76 334 106 114 109 185 78 65 59 56 71 81 78 61 80 66 50 56 341 216 155 155 131 157 179 187 163 177 171 173 170 152 144 138 134 132 119 113 115 111 97 86 73 62 51
256 307 274 276 262 302 199 109 175 204 231 198 294 237 248 207 247 223 213 318 307 247 181 226 352 335 314 270 152 129 156 118 357 310 176 146 165 135 108 110 61 15 86 84 52 81 105 61 126 118 93 46 35 46 71 105 104 71 55 55 49 76 70 77 93 39 7 80 137 150 165 120 114 135 128 122 119 111 106 106 107 107 99 86 82 73 63 48
164 296 38 253 311 330 245 171 205 178 212 233 238 226 211 210 245 321 165 80 319 300 75 75 23 103 227 140 104 108 221 223 160 157 221 137 82 9 114 183 139 46 42 68 99 339 124 131 158 230 73 41 23 51 69 88 115 85 57 52 58 77 83 77 101 125 126 67 118 134 139 125 34 92 102 98 98 103 97 95 103 105 93 85 82 75 61 40
306 344 353 318 237 232 141 174 155 173 191 213 215 244 213 220 261 232 237 192 227 295 351 140 183 93 64 76 75 82 30 120 60 89 146 205 133 208 135 155 225 115 42 74 31 15 55 131 70 165 100 68 22 53 90 100 91 90 62 39 32 36 76 81 100 196 196 138 134 132 143 160 143 117 100 100 100 95 99 106 102 89 91 86 82 76 67 42
298 345 360 301 244 286 197 98 86 124 231 214 187 202 211 237 143 32 356 239 199 194 13 336 206 80 44 64 38 38 67 62 71 86 94 82 90 81 64 72 40 136 128 93 329 67 103 136 160 147 97 132 138 294 96 254 112 79 31 1 7 58 85 91 72 55 24 136 136 162 184 111 135 130 109 94 96 96 92 87 91 90 86 89 89 84 78 61